Regional Weather Roundup
Issued by NWS Kansas City/Pleasant Hill, MO

Home | Current Version | Previous Version | Text Only | Print | Product List | Glossary On
Versions: 1 2 3 4 5 6 7 8 9 10 11 12 13 14 15 16 17 18 19 20 21 22 23 24 25 26 27 28 29 30 31 32 33 34 35 36 37 38 39 40 41 42 43 44 45 46 47 48 49 50
000
ASUS43 KEAX 161710
RWREAX

WEATHER ROUNDUP FOR EASTERN KANSAS AND NORTHWEST MISSOURI
NATIONAL WEATHER SERVICE KANSAS CITY/PLEASANT HILL MO
1100 AM CST SAT DEC 16 2017

KSZ040-057-103>105-MOZ028-029-037-043-161800-
...KANSAS CITY METROPOLITAN AREA...

CITY           SKY/WX    TMP DP  RH WIND       PRES   REMARKS
K.C. INTL      MOSUNNY   48  26  42 SW12G22   29.90R
K.C. DOWNTOWN  SUNNY     50  26  39 SW10      29.90F
LEES SUMMIT    SUNNY     49  27  42 SW17G25   29.92S
OLATHE - IXD   SUNNY     50  27  40 SW15      29.92S
OLATHE - OJC   SUNNY     48  27  44 SW10      29.91S
LAWRENCE       SUNNY     49  27  42 S13       29.90F

$$

MOZ001>008-011>017-020>025-030>033-038>040-044>046-053-054-161800-
...NORTHERN AND CENTRAL MISSOURI...

CITY           SKY/WX    TMP DP  RH WIND       PRES   REMARKS
ST. JOSEPH     SUNNY     47  28  47 SW16      29.88S
MOSBY          SUNNY     48  27  43 SW10      29.91F
WARRENSBURG    SUNNY     50  27  40 S13       29.94S
WHITEMAN AFB   SUNNY     51  26  38 SW22      29.89F
CLINTON        SUNNY     52  28  40 SW17      29.97S
SEDALIA        SUNNY     52  28  39 SW17G25   29.95F
WARSAW         NOT AVBL
CHILLICOTHE      N/A     48  27  44 SW10      29.91R
KIRKSVILLE     SUNNY     48  30  49 SW10G20   29.90R

$$

MOZ041-047>049-056>058-063>065-088>090-097-161800-
...EASTERN AND SOUTHERN MISSOURI...

CITY           SKY/WX    TMP DP  RH WIND       PRES   REMARKS
ST. LOUIS INTL MOSUNNY   51  27  39 SW16      30.00F
SPIRIT OF STL  SUNNY     53  27  36 SW13G21   29.99F
COLUMBIA       SUNNY     53  27  36 SW16      29.96F
JEFFERSON CITY SUNNY     52  26  36 S8        29.98F
ROLLA          SUNNY     52  27  38 SW17      30.01S
OSAGE BEACH    SUNNY     55  27  34 SW13G21   30.00F
SPRINGFIELD    SUNNY     55  26  32 SW21      30.03S
BRANSON        MOSUNNY   54  25  32 SW10G18   30.09S
JOPLIN         SUNNY     53  28  38 SW20G33   30.03S
WEST PLAINS    SUNNY     50  26  39 SW13G20   30.10S

$$

IAZ060-094-KSZ022-034>040-054-083-096-NEZ052-066-093-161800-
...KANSAS...SOUTHEAST NEBRASKA AND IOWA...

CITY           SKY/WX    TMP DP  RH WIND       PRES   REMARKS
TOPEKA         SUNNY    N/A N/A N/A S10       29.89S
MANHATTAN      SUNNY     50  26  39 SW13      29.86R
EMPORIA        SUNNY     52  27  38 S21G26    29.89S
CHANUTE        SUNNY     51  27  39 SW20G29   29.96S
WICHITA        SUNNY     50  28  42 S18       29.89S
OMAHA          CLOUDY    44  23  43 N7        29.85R
LINCOLN        SUNNY     45  23  42 CALM      29.86R
FALLS CITY     SUNNY     48  25  40 SW10      29.85R
LAMONI         SUNNY     45  26  47 SW13      29.85R
DES MOINES     MOSUNNY   45  25  45 W7        29.84R

$$




USA.gov is the U.S. government's official web portal to all federal, state and local government web resources and services.